Year,Month,Day,Hour,Minute,Value (Times are PST for temperature in C)
2009,06,26,00,00,8.90
2009,06,26,00,01,8.90
2009,06,26,00,02,8.90
2009,06,26,00,03,8.90
2009,06,26,00,04,9.00
2009,06,26,00,05,9.00
2009,06,26,00,06,8.90
2009,06,26,00,07,8.90
2009,06,26,00,08,8.90
2009,06,26,00,09,8.90
2009,06,26,00,10,9.00
2009,06,26,00,11,8.90
2009,06,26,00,12,8.90
2009,06,26,00,13,8.90
2009,06,26,00,14,8.90
2009,06,26,00,15,8.90
2009,06,26,00,16,8.90
2009,06,26,00,17,8.90
2009,06,26,00,18,8.90
2009,06,26,00,19,8.90
2009,06,26,00,20,8.90
2009,06,26,00,21,8.90
2009,06,26,00,22,8.90
2009,06,26,00,23,8.90
2009,06,26,00,24,8.90
2009,06,26,00,25,8.80
2009,06,26,00,26,8.80
2009,06,26,00,27,8.80
2009,06,26,00,28,8.80
2009,06,26,00,29,8.80
2009,06,26,00,30,8.80
2009,06,26,00,31,8.80
2009,06,26,00,32,8.80
2009,06,26,00,33,8.80
2009,06,26,00,34,8.80
2009,06,26,00,35,8.80
2009,06,26,00,36,8.80
2009,06,26,00,37,8.80
2009,06,26,00,38,8.80
2009,06,26,00,39,8.80
2009,06,26,00,40,8.70
2009,06,26,00,41,8.70
2009,06,26,00,42,8.70
2009,06,26,00,43,8.70
2009,06,26,00,44,8.70
2009,06,26,00,45,8.70
2009,06,26,00,46,8.70
2009,06,26,00,47,8.70
2009,06,26,00,48,8.60
2009,06,26,00,49,8.60
2009,06,26,00,50,8.50
2009,06,26,00,51,8.50
2009,06,26,00,52,8.50
2009,06,26,00,53,8.50
2009,06,26,00,54,8.40
2009,06,26,00,55,8.40
2009,06,26,00,56,8.40
2009,06,26,00,57,8.40
2009,06,26,00,58,8.30
2009,06,26,00,59,8.30
2009,06,26,01,00,8.30
2009,06,26,01,01,8.30
2009,06,26,01,02,8.20
2009,06,26,01,03,8.20
2009,06,26,01,04,8.20
2009,06,26,01,05,8.20
2009,06,26,01,06,8.20
2009,06,26,01,07,8.20
2009,06,26,01,08,8.20
2009,06,26,01,09,8.10
2009,06,26,01,10,8.10
2009,06,26,01,11,8.00
2009,06,26,01,12,8.00
2009,06,26,01,13,8.00
2009,06,26,01,14,7.90
2009,06,26,01,15,7.90
2009,06,26,01,16,7.90
2009,06,26,01,17,7.80
2009,06,26,01,18,7.80
2009,06,26,01,19,7.80
2009,06,26,01,20,7.80
2009,06,26,01,21,7.80
2009,06,26,01,22,7.70
2009,06,26,01,23,7.70
2009,06,26,01,24,7.70
2009,06,26,01,25,7.60
2009,06,26,01,26,7.60
2009,06,26,01,27,7.60
2009,06,26,01,28,7.60
2009,06,26,01,29,7.50
2009,06,26,01,30,7.50
2009,06,26,01,31,7.40
2009,06,26,01,32,7.40
2009,06,26,01,33,7.40
2009,06,26,01,34,7.30
2009,06,26,01,35,7.30
2009,06,26,01,36,7.30
2009,06,26,01,37,7.30
2009,06,26,01,38,7.30
2009,06,26,01,39,7.30
2009,06,26,01,40,7.30
2009,06,26,01,41,7.30
2009,06,26,01,42,7.30
2009,06,26,01,43,7.30
2009,06,26,01,44,7.30
2009,06,26,01,45,7.30
2009,06,26,01,46,7.30
2009,06,26,01,47,7.30
2009,06,26,01,48,7.30
2009,06,26,01,49,7.30
2009,06,26,01,50,7.30
2009,06,26,01,51,7.30
2009,06,26,01,52,7.30
2009,06,26,01,53,7.30
2009,06,26,01,54,7.30
2009,06,26,01,55,7.30
2009,06,26,01,56,7.30
2009,06,26,01,57,7.30
2009,06,26,01,58,7.30
2009,06,26,01,59,7.30
2009,06,26,02,00,7.30
2009,06,26,02,01,7.30
2009,06,26,02,02,7.30
2009,06,26,02,03,7.30
2009,06,26,02,04,7.30
2009,06,26,02,05,7.30
2009,06,26,02,06,7.20
2009,06,26,02,07,7.20
2009,06,26,02,08,7.20
2009,06,26,02,09,7.20
2009,06,26,02,10,7.10
2009,06,26,02,11,7.10
2009,06,26,02,12,7.10
2009,06,26,02,13,7.00
2009,06,26,02,14,7.00
2009,06,26,02,15,7.00
2009,06,26,02,16,7.00
2009,06,26,02,17,7.00
2009,06,26,02,18,6.90
2009,06,26,02,19,6.90
2009,06,26,02,20,6.90
2009,06,26,02,21,6.90
2009,06,26,02,22,6.80
2009,06,26,02,23,6.80
2009,06,26,02,24,6.80
2009,06,26,02,25,6.80
2009,06,26,02,26,6.80
2009,06,26,02,27,6.80
2009,06,26,02,28,6.80
2009,06,26,02,29,6.80
2009,06,26,02,30,6.80
2009,06,26,02,31,6.70
2009,06,26,02,32,6.70
2009,06,26,02,33,6.70
2009,06,26,02,34,6.70
2009,06,26,02,35,6.70
2009,06,26,02,36,6.70
2009,06,26,02,37,6.60
2009,06,26,02,38,6.60
2009,06,26,02,39,6.60
2009,06,26,02,40,6.60
2009,06,26,02,41,6.60
2009,06,26,02,42,6.60
2009,06,26,02,43,6.60
2009,06,26,02,44,6.60
2009,06,26,02,45,6.60
2009,06,26,02,46,6.60
2009,06,26,02,47,6.60
2009,06,26,02,48,6.60
2009,06,26,02,49,6.60
2009,06,26,02,50,6.50
2009,06,26,02,51,6.40
2009,06,26,02,52,6.40
2009,06,26,02,53,6.40
2009,06,26,02,54,6.40
2009,06,26,02,55,6.40
2009,06,26,02,56,6.40
2009,06,26,02,57,6.40
2009,06,26,02,58,6.40
2009,06,26,02,59,6.40
2009,06,26,03,00,6.40
2009,06,26,03,01,6.40
2009,06,26,03,02,6.40
2009,06,26,03,03,6.40
2009,06,26,03,04,6.30
2009,06,26,03,05,6.30
2009,06,26,03,06,6.30
2009,06,26,03,07,6.30
2009,06,26,03,08,6.30
2009,06,26,03,09,6.30
2009,06,26,03,10,6.30
2009,06,26,03,11,6.30
2009,06,26,03,12,6.30
2009,06,26,03,13,6.30
2009,06,26,03,14,6.30
2009,06,26,03,15,6.30
2009,06,26,03,16,6.20
2009,06,26,03,17,6.20
2009,06,26,03,18,6.20
2009,06,26,03,19,6.20
2009,06,26,03,20,6.20
2009,06,26,03,21,6.20
2009,06,26,03,22,6.30
2009,06,26,03,23,6.20
2009,06,26,03,24,6.30
2009,06,26,03,25,6.30
2009,06,26,03,26,6.30
2009,06,26,03,27,6.30
2009,06,26,03,28,6.30
2009,06,26,03,29,6.30
2009,06,26,03,30,6.30
2009,06,26,03,31,6.30
2009,06,26,03,32,6.30
2009,06,26,03,33,6.30
2009,06,26,03,34,6.30
2009,06,26,03,35,6.30
2009,06,26,03,36,6.30
2009,06,26,03,37,6.30
2009,06,26,03,38,6.30
2009,06,26,03,39,6.30
2009,06,26,03,40,6.30
2009,06,26,03,41,6.30
2009,06,26,03,42,6.20
2009,06,26,03,43,6.20
2009,06,26,03,44,6.20
2009,06,26,03,45,6.20
2009,06,26,03,46,6.20
2009,06,26,03,47,6.20
2009,06,26,03,48,6.20
2009,06,26,03,49,6.20
2009,06,26,03,50,6.20
2009,06,26,03,51,6.20
2009,06,26,03,52,6.20
2009,06,26,03,53,6.20
2009,06,26,03,54,6.20
2009,06,26,03,55,6.20
2009,06,26,03,56,6.20
2009,06,26,03,57,6.20
2009,06,26,03,58,6.20
2009,06,26,03,59,6.10
2009,06,26,04,00,6.10
2009,06,26,04,01,6.10
2009,06,26,04,02,6.10
2009,06,26,04,03,6.10
2009,06,26,04,04,6.00
2009,06,26,04,05,6.00
2009,06,26,04,06,6.00
2009,06,26,04,07,6.00
2009,06,26,04,08,6.00
2009,06,26,04,09,6.00
2009,06,26,04,10,6.00
2009,06,26,04,11,6.00
2009,06,26,04,12,6.00
2009,06,26,04,13,6.00
2009,06,26,04,14,6.00
2009,06,26,04,15,6.00
2009,06,26,04,16,6.00
2009,06,26,04,17,6.00
2009,06,26,04,18,6.00
2009,06,26,04,19,6.00
2009,06,26,04,20,6.00
2009,06,26,04,21,6.00
2009,06,26,04,22,6.00
2009,06,26,04,23,6.00
2009,06,26,04,24,6.00
2009,06,26,04,25,6.00
2009,06,26,04,26,6.00
2009,06,26,04,27,6.00
2009,06,26,04,28,6.00
2009,06,26,04,29,6.00
2009,06,26,04,30,6.00
2009,06,26,04,31,6.00
2009,06,26,04,32,6.10
2009,06,26,04,33,6.10
2009,06,26,04,34,6.10
2009,06,26,04,35,6.10
2009,06,26,04,36,6.10
2009,06,26,04,37,6.10
2009,06,26,04,38,6.10
2009,06,26,04,39,6.20
2009,06,26,04,40,6.20
2009,06,26,04,41,6.20
2009,06,26,04,42,6.20
2009,06,26,04,43,6.20
2009,06,26,04,44,6.20
2009,06,26,04,45,6.20
2009,06,26,04,46,6.20
2009,06,26,04,47,6.20
2009,06,26,04,48,6.20
2009,06,26,04,49,6.20
2009,06,26,04,50,6.30
2009,06,26,04,51,6.30
2009,06,26,04,52,6.30
2009,06,26,04,53,6.30
2009,06,26,04,54,6.30
2009,06,26,04,55,6.30
2009,06,26,04,56,6.30
2009,06,26,04,57,6.30
2009,06,26,04,58,6.40
2009,06,26,04,59,6.40
2009,06,26,05,00,6.40
2009,06,26,05,01,6.40
2009,06,26,05,02,6.40
2009,06,26,05,03,6.40
2009,06,26,05,04,6.40
2009,06,26,05,05,6.40
2009,06,26,05,06,6.40
2009,06,26,05,07,6.40
2009,06,26,05,08,6.40
2009,06,26,05,09,6.50
2009,06,26,05,10,6.60
2009,06,26,05,11,6.60
2009,06,26,05,12,6.60
2009,06,26,05,13,6.60
2009,06,26,05,14,6.60
2009,06,26,05,15,6.60
2009,06,26,05,16,6.60
2009,06,26,05,17,6.60
2009,06,26,05,18,6.60
2009,06,26,05,19,6.70
2009,06,26,05,20,6.70
2009,06,26,05,21,6.70
2009,06,26,05,22,6.70
2009,06,26,05,23,6.70
2009,06,26,05,24,6.70
2009,06,26,05,25,6.70
2009,06,26,05,26,6.80
2009,06,26,05,27,6.80
2009,06,26,05,28,6.80
2009,06,26,05,29,6.80
2009,06,26,05,30,6.80
2009,06,26,05,31,6.80
2009,06,26,05,32,6.80
2009,06,26,05,33,6.80
2009,06,26,05,34,6.80
2009,06,26,05,35,6.80
2009,06,26,05,36,6.80
2009,06,26,05,37,6.80
2009,06,26,05,38,6.80
2009,06,26,05,39,6.80
2009,06,26,05,40,6.80
2009,06,26,05,41,6.80
2009,06,26,05,42,6.80
2009,06,26,05,43,6.80
2009,06,26,05,44,6.80
2009,06,26,05,45,6.80
2009,06,26,05,46,6.80
2009,06,26,05,47,6.80
2009,06,26,05,48,6.80
2009,06,26,05,49,6.80
2009,06,26,05,50,6.80
2009,06,26,05,51,6.80
2009,06,26,05,52,6.80
2009,06,26,05,53,6.80
2009,06,26,05,54,6.80
2009,06,26,05,55,6.80
2009,06,26,05,56,6.80
2009,06,26,05,57,6.80
2009,06,26,05,58,6.80
2009,06,26,05,59,6.80
2009,06,26,06,00,6.80
2009,06,26,06,01,6.90
2009,06,26,06,02,6.90
2009,06,26,06,03,6.90
2009,06,26,06,04,7.00
2009,06,26,06,05,7.00
2009,06,26,06,06,7.00
2009,06,26,06,07,7.00
2009,06,26,06,08,7.10
2009,06,26,06,09,7.10
2009,06,26,06,10,7.10
2009,06,26,06,11,7.10
2009,06,26,06,12,7.10
2009,06,26,06,13,7.20
2009,06,26,06,14,7.20
2009,06,26,06,15,7.20
2009,06,26,06,16,7.30
2009,06,26,06,17,7.30
2009,06,26,06,18,7.30
2009,06,26,06,19,7.30
2009,06,26,06,20,7.40
2009,06,26,06,21,7.40
2009,06,26,06,22,7.40
2009,06,26,06,23,7.50
2009,06,26,06,24,7.50
2009,06,26,06,25,7.50
2009,06,26,06,26,7.60
2009,06,26,06,27,7.60
2009,06,26,06,28,7.70
2009,06,26,06,29,7.70
2009,06,26,06,30,7.80
2009,06,26,06,31,7.80
2009,06,26,06,32,7.80
2009,06,26,06,33,7.90
2009,06,26,06,34,7.90
2009,06,26,06,35,8.00
2009,06,26,06,36,8.00
2009,06,26,06,37,8.00
2009,06,26,06,38,8.10
2009,06,26,06,39,8.20
2009,06,26,06,40,8.20
2009,06,26,06,41,8.20
2009,06,26,06,42,8.30
2009,06,26,06,43,8.30
2009,06,26,06,44,8.40
2009,06,26,06,45,8.40
2009,06,26,06,46,8.50
2009,06,26,06,47,8.50
2009,06,26,06,48,8.50
2009,06,26,06,49,8.60
2009,06,26,06,50,8.60
2009,06,26,06,51,8.60
2009,06,26,06,52,8.60
2009,06,26,06,53,8.60
2009,06,26,06,54,8.60
2009,06,26,06,55,8.70
2009,06,26,06,56,8.70
2009,06,26,06,57,8.70
2009,06,26,06,58,8.70
2009,06,26,06,59,8.70
2009,06,26,07,00,8.70
2009,06,26,07,01,8.70
2009,06,26,07,02,8.70
2009,06,26,07,03,8.70
2009,06,26,07,04,8.80
2009,06,26,07,05,8.80
2009,06,26,07,06,8.80
2009,06,26,07,07,8.90
2009,06,26,07,08,8.90
2009,06,26,07,09,8.90
2009,06,26,07,10,8.90
2009,06,26,07,11,9.00
2009,06,26,07,12,9.00
2009,06,26,07,13,9.00
2009,06,26,07,14,9.00
2009,06,26,07,15,9.10
2009,06,26,07,16,9.20
2009,06,26,07,17,9.20
2009,06,26,07,18,9.20
2009,06,26,07,19,9.30
2009,06,26,07,20,9.30
2009,06,26,07,21,9.40
2009,06,26,07,22,9.40
2009,06,26,07,23,9.50
2009,06,26,07,24,9.50
2009,06,26,07,25,9.60
2009,06,26,07,26,9.70
2009,06,26,07,27,9.70
2009,06,26,07,28,9.70
2009,06,26,07,29,9.70
2009,06,26,07,30,9.80
2009,06,26,07,31,9.80
2009,06,26,07,32,9.90
2009,06,26,07,33,9.90
2009,06,26,07,34,9.90
2009,06,26,07,35,10.00
2009,06,26,07,36,10.10
2009,06,26,07,37,10.20
2009,06,26,07,38,10.20
2009,06,26,07,39,10.20
2009,06,26,07,40,10.30
2009,06,26,07,41,10.40
2009,06,26,07,42,10.40
2009,06,26,07,43,10.50
2009,06,26,07,44,10.60
2009,06,26,07,45,10.70
2009,06,26,07,46,10.70
2009,06,26,07,47,10.80
2009,06,26,07,48,10.80
2009,06,26,07,49,10.80
2009,06,26,07,50,10.80
2009,06,26,07,51,10.80
2009,06,26,07,52,10.80
2009,06,26,07,53,10.80
2009,06,26,07,54,10.90
2009,06,26,07,55,10.90
2009,06,26,07,56,10.90
2009,06,26,07,57,10.90
2009,06,26,07,58,11.00
2009,06,26,07,59,11.10
2009,06,26,08,00,11.10
2009,06,26,08,01,11.10
2009,06,26,08,02,11.10
2009,06,26,08,03,11.10
2009,06,26,08,04,11.10
2009,06,26,08,05,11.20
2009,06,26,08,06,11.20
2009,06,26,08,07,11.30
2009,06,26,08,08,11.40
2009,06,26,08,09,11.40
2009,06,26,08,10,11.40
2009,06,26,08,11,11.50
2009,06,26,08,12,11.60
2009,06,26,08,13,11.60
2009,06,26,08,14,11.60
2009,06,26,08,15,11.70
2009,06,26,08,16,11.70
2009,06,26,08,17,11.80
2009,06,26,08,18,11.80
2009,06,26,08,19,11.80
2009,06,26,08,20,11.90
2009,06,26,08,21,11.90
2009,06,26,08,22,12.00
2009,06,26,08,23,12.00
2009,06,26,08,24,12.00
2009,06,26,08,25,12.10
2009,06,26,08,26,12.10
2009,06,26,08,27,12.20
2009,06,26,08,28,12.20
2009,06,26,08,29,12.30
2009,06,26,08,30,12.30
2009,06,26,08,31,12.40
2009,06,26,08,32,12.40
2009,06,26,08,33,12.50
2009,06,26,08,34,12.50
2009,06,26,08,35,12.50
2009,06,26,08,36,12.60
2009,06,26,08,37,12.60
2009,06,26,08,38,12.70
2009,06,26,08,39,12.80
2009,06,26,08,40,12.80
2009,06,26,08,41,12.90
2009,06,26,08,42,12.90
2009,06,26,08,43,12.90
2009,06,26,08,44,13.00
2009,06,26,08,45,13.10
2009,06,26,08,46,13.10
2009,06,26,08,47,13.10
2009,06,26,08,48,13.20
2009,06,26,08,49,13.30
2009,06,26,08,50,13.30
2009,06,26,08,51,13.30
2009,06,26,08,52,13.30
2009,06,26,08,53,13.30
2009,06,26,08,54,13.30
2009,06,26,08,55,13.30
2009,06,26,08,56,13.30
2009,06,26,08,57,13.30
2009,06,26,08,58,13.30
2009,06,26,08,59,13.30
2009,06,26,09,00,13.30
2009,06,26,09,01,13.40
2009,06,26,09,02,13.40
2009,06,26,09,03,13.40
2009,06,26,09,04,13.40
2009,06,26,09,05,13.40
2009,06,26,09,06,13.40
2009,06,26,09,07,13.40
2009,06,26,09,08,13.40
2009,06,26,09,09,13.50
2009,06,26,09,10,13.50
2009,06,26,09,11,13.60
2009,06,26,09,12,13.60
2009,06,26,09,13,13.70
2009,06,26,09,14,13.70
2009,06,26,09,15,13.70
2009,06,26,09,16,13.70
2009,06,26,09,17,13.70
2009,06,26,09,18,13.80
2009,06,26,09,19,13.80
2009,06,26,09,20,13.90
2009,06,26,09,21,14.00
2009,06,26,09,22,14.00
2009,06,26,09,23,14.10
2009,06,26,09,24,14.20
2009,06,26,09,25,14.20
2009,06,26,09,26,14.30
2009,06,26,09,27,14.40
2009,06,26,09,28,14.40
2009,06,26,09,29,14.40
2009,06,26,09,30,14.40
2009,06,26,09,31,14.30
2009,06,26,09,32,14.30
2009,06,26,09,33,14.30
2009,06,26,09,34,14.40
2009,06,26,09,35,14.50
2009,06,26,09,36,14.50
2009,06,26,09,37,14.60
2009,06,26,09,38,14.60
2009,06,26,09,39,14.60
2009,06,26,09,40,14.60
2009,06,26,09,41,14.60
2009,06,26,09,42,14.50
2009,06,26,09,43,14.50
2009,06,26,09,44,14.50
2009,06,26,09,45,14.50
2009,06,26,09,46,14.40
2009,06,26,09,47,14.50
2009,06,26,09,48,14.40
2009,06,26,09,49,14.40
2009,06,26,09,50,14.40
2009,06,26,09,51,14.40
2009,06,26,09,52,14.50
2009,06,26,09,53,14.50
2009,06,26,09,54,14.50
2009,06,26,09,55,14.50
2009,06,26,09,56,14.50
2009,06,26,09,57,14.50
2009,06,26,09,58,14.40
2009,06,26,09,59,14.40
2009,06,26,10,00,14.30
2009,06,26,10,01,14.30
2009,06,26,10,02,14.20
2009,06,26,10,03,14.30
2009,06,26,10,04,14.20
2009,06,26,10,05,14.20
2009,06,26,10,06,14.20
2009,06,26,10,07,14.20
2009,06,26,10,08,14.20
2009,06,26,10,09,14.30
2009,06,26,10,10,14.20
2009,06,26,10,11,14.20
2009,06,26,10,12,14.20
2009,06,26,10,13,14.10
2009,06,26,10,14,14.00
2009,06,26,10,15,14.00
2009,06,26,10,16,14.00
2009,06,26,10,17,13.90
2009,06,26,10,18,14.00
2009,06,26,10,19,14.00
2009,06,26,10,20,14.00
2009,06,26,10,21,14.00
2009,06,26,10,22,14.00
2009,06,26,10,23,14.00
2009,06,26,10,24,14.10
2009,06,26,10,25,14.10
2009,06,26,10,26,14.20
2009,06,26,10,27,14.20
2009,06,26,10,28,14.20
2009,06,26,10,29,14.30
2009,06,26,10,30,14.30
2009,06,26,10,31,14.30
2009,06,26,10,32,14.40
2009,06,26,10,33,14.40
2009,06,26,10,34,14.30
2009,06,26,10,35,14.20
2009,06,26,10,36,14.30
2009,06,26,10,37,14.30
2009,06,26,10,38,14.30
2009,06,26,10,39,14.30
2009,06,26,10,40,14.30
2009,06,26,10,41,14.30
2009,06,26,10,42,14.30
2009,06,26,10,43,14.40
2009,06,26,10,44,14.50
2009,06,26,10,45,14.60
2009,06,26,10,46,14.70
2009,06,26,10,47,14.80
2009,06,26,10,48,14.90
2009,06,26,10,49,15.00
2009,06,26,10,50,15.00
2009,06,26,10,51,15.00
2009,06,26,10,52,15.10
2009,06,26,10,53,15.20
2009,06,26,10,54,15.30
2009,06,26,10,55,15.40
2009,06,26,10,56,15.30
2009,06,26,10,57,15.30
2009,06,26,10,58,15.30
2009,06,26,10,59,15.30
2009,06,26,11,00,15.50
2009,06,26,11,01,15.50
2009,06,26,11,02,15.50
2009,06,26,11,03,15.50
2009,06,26,11,04,15.60
2009,06,26,11,05,15.70
2009,06,26,11,06,15.80
2009,06,26,11,07,15.80
2009,06,26,11,08,15.80
2009,06,26,11,09,15.90
2009,06,26,11,10,16.00
2009,06,26,11,11,16.10
2009,06,26,11,12,16.10
2009,06,26,11,13,16.20
2009,06,26,11,14,16.30
2009,06,26,11,15,16.30
2009,06,26,11,16,16.40
2009,06,26,11,17,16.30
2009,06,26,11,18,16.30
2009,06,26,11,19,16.20
2009,06,26,11,20,16.10
2009,06,26,11,21,16.00
2009,06,26,11,22,15.80
2009,06,26,11,23,15.80
2009,06,26,11,24,15.80
2009,06,26,11,25,15.80
2009,06,26,11,26,15.80
2009,06,26,11,27,15.80
2009,06,26,11,28,16.00
2009,06,26,11,29,16.10
2009,06,26,11,30,16.30
2009,06,26,11,31,16.30
2009,06,26,11,32,16.40
2009,06,26,11,33,16.50
2009,06,26,11,34,16.60
2009,06,26,11,35,16.60
2009,06,26,11,36,16.50
2009,06,26,11,37,16.40
2009,06,26,11,38,16.40
2009,06,26,11,39,16.40
2009,06,26,11,40,16.40
2009,06,26,11,41,16.30
2009,06,26,11,42,16.20
2009,06,26,11,43,16.10
2009,06,26,11,44,16.10
2009,06,26,11,45,16.10
2009,06,26,11,46,16.10
2009,06,26,11,47,16.10
2009,06,26,11,48,16.10
2009,06,26,11,49,16.20
2009,06,26,11,50,16.30
2009,06,26,11,51,16.30
2009,06,26,11,52,16.40
2009,06,26,11,53,16.40
2009,06,26,11,54,16.60
2009,06,26,11,55,16.60
2009,06,26,11,56,16.70
2009,06,26,11,57,16.70
2009,06,26,11,58,16.60
2009,06,26,11,59,16.60
2009,06,26,12,00,16.60
2009,06,26,12,01,16.60
2009,06,26,12,02,16.70
2009,06,26,12,03,16.70
2009,06,26,12,04,16.70
2009,06,26,12,05,16.70
2009,06,26,12,06,16.70
2009,06,26,12,07,16.70
2009,06,26,12,08,16.70
2009,06,26,12,09,16.60
2009,06,26,12,10,16.50
2009,06,26,12,11,16.40
2009,06,26,12,12,16.40
2009,06,26,12,13,16.40
2009,06,26,12,14,16.40
2009,06,26,12,15,16.50
2009,06,26,12,16,16.60
2009,06,26,12,17,16.70
2009,06,26,12,18,16.70
2009,06,26,12,19,16.70
2009,06,26,12,20,16.70
2009,06,26,12,21,16.70
2009,06,26,12,22,16.50
2009,06,26,12,23,16.40
2009,06,26,12,24,16.40
2009,06,26,12,25,16.40
2009,06,26,12,26,16.50
2009,06,26,12,27,16.60
2009,06,26,12,28,16.60
2009,06,26,12,29,16.60
2009,06,26,12,30,16.70
2009,06,26,12,31,16.80
2009,06,26,12,32,17.00
2009,06,26,12,33,17.10
2009,06,26,12,34,17.00
2009,06,26,12,35,16.90
2009,06,26,12,36,16.90
2009,06,26,12,37,16.90
2009,06,26,12,38,16.80
2009,06,26,12,39,16.70
2009,06,26,12,40,16.60
2009,06,26,12,41,16.60
2009,06,26,12,42,16.70
2009,06,26,12,43,16.80
2009,06,26,12,44,16.80
2009,06,26,12,45,16.80
2009,06,26,12,46,16.80
2009,06,26,12,47,16.90
2009,06,26,12,48,17.00
2009,06,26,12,49,17.10
2009,06,26,12,50,17.20
2009,06,26,12,51,17.10
2009,06,26,12,52,17.10
2009,06,26,12,53,17.10
2009,06,26,12,54,17.00
2009,06,26,12,55,17.00
2009,06,26,12,56,17.00
2009,06,26,12,57,17.00
2009,06,26,12,58,17.00
2009,06,26,12,59,17.00
2009,06,26,13,00,17.10
2009,06,26,13,01,17.30
2009,06,26,13,02,17.40
2009,06,26,13,03,17.40
2009,06,26,13,04,17.50
2009,06,26,13,05,17.40
2009,06,26,13,06,17.30
2009,06,26,13,07,17.30
2009,06,26,13,08,17.30
2009,06,26,13,09,17.30
2009,06,26,13,10,17.20
2009,06,26,13,11,17.10
2009,06,26,13,12,16.90
2009,06,26,13,13,16.90
2009,06,26,13,14,16.90
2009,06,26,13,15,16.90
2009,06,26,13,16,16.80
2009,06,26,13,17,16.80
2009,06,26,13,18,16.90
2009,06,26,13,19,17.00
2009,06,26,13,20,17.00
2009,06,26,13,21,17.10
2009,06,26,13,22,17.10
2009,06,26,13,23,17.00
2009,06,26,13,24,17.00
2009,06,26,13,25,16.90
2009,06,26,13,26,16.90
2009,06,26,13,27,16.80
2009,06,26,13,28,16.80
2009,06,26,13,29,16.90
2009,06,26,13,30,16.90
2009,06,26,13,31,17.00
2009,06,26,13,32,17.10
2009,06,26,13,33,17.20
2009,06,26,13,34,17.20
2009,06,26,13,35,17.30
2009,06,26,13,36,17.30
2009,06,26,13,37,17.30
2009,06,26,13,38,17.40
2009,06,26,13,39,17.50
2009,06,26,13,40,17.70
2009,06,26,13,41,17.70
2009,06,26,13,42,17.70
2009,06,26,13,43,17.70
2009,06,26,13,44,17.60
2009,06,26,13,45,17.60
2009,06,26,13,46,17.60
2009,06,26,13,47,17.60
2009,06,26,13,48,17.50
2009,06,26,13,49,17.50
2009,06,26,13,50,17.50
2009,06,26,13,51,17.50
2009,06,26,13,52,17.50
2009,06,26,13,53,17.50
2009,06,26,13,54,17.50
2009,06,26,13,55,17.40
2009,06,26,13,56,17.50
2009,06,26,13,57,17.60
2009,06,26,13,58,17.60
2009,06,26,13,59,17.60
2009,06,26,14,00,17.60
2009,06,26,14,01,17.60
2009,06,26,14,02,17.60
2009,06,26,14,03,17.60
2009,06,26,14,04,17.70
2009,06,26,14,05,17.70
2009,06,26,14,06,17.70
2009,06,26,14,07,17.80
2009,06,26,14,08,17.90
2009,06,26,14,09,17.90
2009,06,26,14,10,18.00
2009,06,26,14,11,18.10
2009,06,26,14,12,18.20
2009,06,26,14,13,18.20
2009,06,26,14,14,18.20
2009,06,26,14,15,18.10
2009,06,26,14,16,18.00
2009,06,26,14,17,17.90
2009,06,26,14,18,17.80
2009,06,26,14,19,17.80
2009,06,26,14,20,17.70
2009,06,26,14,21,17.60
2009,06,26,14,22,17.60
2009,06,26,14,23,17.60
2009,06,26,14,24,17.70
2009,06,26,14,25,17.70
2009,06,26,14,26,17.70
2009,06,26,14,27,17.70
2009,06,26,14,28,17.70
2009,06,26,14,29,17.70
2009,06,26,14,30,17.60
2009,06,26,14,31,17.60
2009,06,26,14,32,17.50
2009,06,26,14,33,17.50
2009,06,26,14,34,17.40
2009,06,26,14,35,17.40
2009,06,26,14,36,17.30
2009,06,26,14,37,17.30
2009,06,26,14,38,17.40
2009,06,26,14,39,17.40
2009,06,26,14,40,17.50
2009,06,26,14,41,17.50
2009,06,26,14,42,17.70
2009,06,26,14,43,17.80
2009,06,26,14,44,17.90
2009,06,26,14,45,17.90
2009,06,26,14,46,17.90
2009,06,26,14,47,17.80
2009,06,26,14,48,17.70
2009,06,26,14,49,17.60
2009,06,26,14,50,17.60
2009,06,26,14,51,17.70
2009,06,26,14,52,17.60
2009,06,26,14,53,17.60
2009,06,26,14,54,17.60
2009,06,26,14,55,17.60
2009,06,26,14,56,17.50
2009,06,26,14,57,17.50
2009,06,26,14,58,17.50
2009,06,26,14,59,17.40
2009,06,26,15,00,17.40
2009,06,26,15,01,17.40
2009,06,26,15,02,17.50
2009,06,26,15,03,17.60
2009,06,26,15,04,17.60
2009,06,26,15,05,17.70
2009,06,26,15,06,17.70
2009,06,26,15,07,17.70
2009,06,26,15,08,17.70
2009,06,26,15,09,17.70
2009,06,26,15,10,17.70
2009,06,26,15,11,17.70
2009,06,26,15,12,17.70
2009,06,26,15,13,17.80
2009,06,26,15,14,17.80
2009,06,26,15,15,17.90
2009,06,26,15,16,18.00
2009,06,26,15,17,18.10
2009,06,26,15,18,18.10
2009,06,26,15,19,18.20
2009,06,26,15,20,18.20
2009,06,26,15,21,18.20
2009,06,26,15,22,18.20
2009,06,26,15,23,18.20
2009,06,26,15,24,18.20
2009,06,26,15,25,18.20
2009,06,26,15,26,18.20
2009,06,26,15,27,18.20
2009,06,26,15,28,18.20
2009,06,26,15,29,18.20
2009,06,26,15,30,18.20
2009,06,26,15,31,18.10
2009,06,26,15,32,18.10
2009,06,26,15,33,18.00
2009,06,26,15,34,17.90
2009,06,26,15,35,17.80
2009,06,26,15,36,17.70
2009,06,26,15,37,17.70
2009,06,26,15,38,17.70
2009,06,26,15,39,17.70
2009,06,26,15,40,17.70
2009,06,26,15,41,17.60
2009,06,26,15,42,17.60
2009,06,26,15,43,17.70
2009,06,26,15,44,17.60
2009,06,26,15,45,17.70
2009,06,26,15,46,17.80
2009,06,26,15,47,17.80
2009,06,26,15,48,17.80
2009,06,26,15,49,17.80
2009,06,26,15,50,17.70
2009,06,26,15,51,17.70
2009,06,26,15,52,17.60
2009,06,26,15,53,17.60
2009,06,26,15,54,17.60
2009,06,26,15,55,17.60
2009,06,26,15,56,17.60
2009,06,26,15,57,17.70
2009,06,26,15,58,17.70
2009,06,26,15,59,17.70
2009,06,26,16,00,17.70
2009,06,26,16,01,17.70
2009,06,26,16,02,17.70
2009,06,26,16,03,17.70
2009,06,26,16,04,17.70
2009,06,26,16,05,17.60
2009,06,26,16,06,17.60
2009,06,26,16,07,17.60
2009,06,26,16,08,17.70
2009,06,26,16,09,17.70
2009,06,26,16,10,17.70
2009,06,26,16,11,17.70
2009,06,26,16,12,17.70
2009,06,26,16,13,17.70
2009,06,26,16,14,17.80
2009,06,26,16,15,17.80
2009,06,26,16,16,17.80
2009,06,26,16,17,17.80
2009,06,26,16,18,17.80
2009,06,26,16,19,17.80
2009,06,26,16,20,17.80
2009,06,26,16,21,17.70
2009,06,26,16,22,17.70
2009,06,26,16,23,17.70
2009,06,26,16,24,17.60
2009,06,26,16,25,17.60
2009,06,26,16,26,17.50
2009,06,26,16,27,17.40
2009,06,26,16,28,17.30
2009,06,26,16,29,17.20
2009,06,26,16,30,17.20
2009,06,26,16,31,17.10
2009,06,26,16,32,17.10
2009,06,26,16,33,17.00
2009,06,26,16,34,17.00
2009,06,26,16,35,17.00
2009,06,26,16,36,17.00
2009,06,26,16,37,17.00
2009,06,26,16,38,17.00
2009,06,26,16,39,17.00
2009,06,26,16,40,17.00
2009,06,26,16,41,17.00
2009,06,26,16,42,17.00
2009,06,26,16,43,17.00
2009,06,26,16,44,17.00
2009,06,26,16,45,17.00
2009,06,26,16,46,17.10
2009,06,26,16,47,17.10
2009,06,26,16,48,17.10
2009,06,26,16,49,17.10
2009,06,26,16,50,17.10
2009,06,26,16,51,17.10
2009,06,26,16,52,17.10
2009,06,26,16,53,17.00
2009,06,26,16,54,17.00
2009,06,26,16,55,17.00
2009,06,26,16,56,17.00
2009,06,26,16,57,17.10
2009,06,26,16,58,17.10
2009,06,26,16,59,17.10
2009,06,26,17,00,17.10
2009,06,26,17,01,17.10
2009,06,26,17,02,17.10
2009,06,26,17,03,17.10
2009,06,26,17,04,17.10
2009,06,26,17,05,17.10
2009,06,26,17,06,17.20
2009,06,26,17,07,17.20
2009,06,26,17,08,17.20
2009,06,26,17,09,17.20
2009,06,26,17,10,17.20
2009,06,26,17,11,17.20
2009,06,26,17,12,17.10
2009,06,26,17,13,17.10
2009,06,26,17,14,17.10
2009,06,26,17,15,17.10
2009,06,26,17,16,17.10
2009,06,26,17,17,17.10
2009,06,26,17,18,17.00
2009,06,26,17,19,17.00
2009,06,26,17,20,17.00
2009,06,26,17,21,17.10
2009,06,26,17,22,17.10
2009,06,26,17,23,17.10
2009,06,26,17,24,17.10
2009,06,26,17,25,17.10
2009,06,26,17,26,17.10
2009,06,26,17,27,17.10
2009,06,26,17,28,17.10
2009,06,26,17,29,17.10
2009,06,26,17,30,17.10
2009,06,26,17,31,17.10
2009,06,26,17,32,17.00
2009,06,26,17,33,17.00
2009,06,26,17,34,17.10
2009,06,26,17,35,17.10
2009,06,26,17,36,17.00
2009,06,26,17,37,17.00
2009,06,26,17,38,17.00
2009,06,26,17,39,17.00